DW4025 Weather Reports


Display with metric or nautical units.
time (UTC)temp
F
wind
direction
speed
MPH
gust
MPH
rain 1hr
in
rain 24hr
in
rain mn
in
humidity
%
barometer
mb
20200219212926 73 301 0.0 2.0 0.00 0.00 0.00 87 1021.2
20200219211852 74 319 0.0 1.0 0.00 0.00 0.00 86 1021.2
20200219210845 75 328 0.0 2.0 0.00 0.00 0.00 84 1021.2
20200219205820 75 212 0.0 0.0 0.00 0.00 0.00 84 1021.1
20200219204751 75 232 0.0 1.0 0.00 0.00 0.00 84 1021.1
20200219203810 74 193 0.0 0.0 0.00 0.00 0.00 86 1021.3
20200219202749 75 142 0.0 0.0 0.00 0.00 0.00 83 1021.5
20200219201741 77 256 0.0 2.0 0.00 0.00 0.00 80 1021.4
20200219200744 78 283 0.0 0.0 0.00 0.00 0.00 77 1021.5
20200219195739 78 250 0.0 0.0 0.00 0.00 0.00 79 1021.5
20200219194725 77 274 0.0 0.0 0.00 0.00 0.00 81 1021.7
20200219193738 76 218 0.0 0.0 0.00 0.00 0.00 83 1021.7
20200219192734 75 248 0.0 0.0 0.00 0.00 0.00 83 1021.9
20200219191708 75 264 0.0 0.0 0.00 0.00 0.00 84 1022.0
20200219190712 75 236 0.0 1.0 0.00 0.00 0.00 83 1022.1
20200219185708 75 198 0.0 7.0 0.00 0.00 0.00 84 1022.2
20200219184655 74 220 0.0 3.0 0.00 0.00 0.00 86 1022.4
20200219183642 74 242 0.0 0.0 0.00 0.00 0.00 87 1022.4
20200219182633 74 238 0.0 1.0 0.00 0.00 0.00 87 1022.7
20200219181623 74 231 0.0 0.0 0.00 0.00 0.00 86 1022.7
20200219180549 75 250 0.0 0.0 0.00 0.00 0.00 87 1022.8
20200219175543 74 263 0.0 0.0 0.00 0.00 0.00 87 1023.1
20200219174604 75 246 0.0 0.0 0.00 0.00 0.00 86 1023.1
20200219173539 75 309 0.0 7.0 0.00 0.00 0.00 85 1023.1
20200219172557 76 294 0.0 2.0 0.00 0.00 0.00 85 1023.2
20200219171542 75 252 0.0 0.0 0.00 0.00 0.00 86 1023.2
20200219170511 75 323 0.0 0.0 0.00 0.00 0.00 85 1023.3
20200219165511 75 319 0.0 0.0 0.00 0.00 0.00 84 1023.5
20200219164459 75 25 0.0 0.0 0.00 0.00 0.00 86 1023.5
20200219163523 74 339 0.0 0.0 0.00 0.00 0.00 87 1023.6
20200219162536 73 119 0.0 0.0 0.00 0.00 0.00 88 1023.7
20200219161528 73 12 0.0 0.0 0.00 0.00 0.00 89 1023.7
20200219160457 72 357 0.0 0.0 0.00 0.00 0.00 90 1023.8
20200219155508 72 358 0.0 0.0 0.00 0.00 0.00 91 1023.9
20200219154447 72 352 0.0 0.0 0.00 0.00 0.00 91 1023.9
20200219153508 72 354 0.0 0.0 0.00 0.00 0.00 92 1023.9
20200219152501 72 82 0.0 0.0 0.00 0.00 0.00 92 1023.9
20200219151503 71 83 0.0 0.0 0.00 0.00 0.00 93 1023.9
20200219150453 71 84 0.0 0.0 0.00 0.00 0.00 94 1023.7
20200219145516 70 84 0.0 0.0 0.00 0.00 0.00 94 1023.6
20200219144536 70 102 0.0 0.0 0.00 0.00 0.00 95 1023.5
20200219143527 70 93 0.0 1.0 0.00 0.00 0.00 95 1023.5
20200219142549 70 82 0.0 0.0 0.00 0.00 0.00 95 1023.5
20200219141601 70 115 0.0 0.0 0.00 0.00 0.00 96 1023.5
20200219140613 70 116 0.0 0.0 0.00 0.00 0.00 96 1023.5
20200219135559 70 115 0.0 0.0 0.00 0.00 0.00 95 1023.4
20200219134530 70 129 0.0 2.0 0.00 0.00 0.00 96 1023.3
20200219133546 69 153 0.0 0.0 0.00 0.00 0.00 96 1023.3
20200219132557 69 200 0.0 0.0 0.00 0.00 0.00 96 1023.2
20200219131541 69 145 0.0 0.0 0.00 0.00 0.00 96 1023.1
20200219130517 69 102 0.0 0.0 0.00 0.00 0.00 96 1022.9
20200219125538 69 82 0.0 0.0 0.00 0.00 0.00 96 1022.7
20200219124543 69 44 0.0 0.0 0.00 0.00 0.00 96 1022.6
20200219123510 69 347 0.0 0.0 0.00 0.00 0.00 96 1022.4
20200219122443 69 322 0.0 0.0 0.00 0.00 0.00 96 1022.4
20200219121412 69 315 0.0 0.0 0.00 0.00 0.00 96 1022.2
20200219120426 69 349 0.0 0.0 0.00 0.00 0.00 96 1022.1
20200219115402 69 345 0.0 0.0 0.00 0.00 0.00 96 1022.0
20200219114358 69 33 0.0 0.0 0.00 0.00 0.00 96 1022.0
20200219113334 69 33 0.0 0.0 0.00 0.00 0.00 96 1021.9
20200219112321 69 85 0.0 0.0 0.00 0.00 0.00 95 1021.9
20200219111255 69 85 0.0 0.0 0.00 0.00 0.00 95 1021.8
20200219110246 69 84 0.0 0.0 0.00 0.00 0.00 95 1021.7
20200219105236 69 83 0.0 0.0 0.00 0.00 0.00 95 1021.6
20200219104235 69 83 0.0 0.0 0.00 0.00 0.00 95 1021.5
20200219103238 68 84 0.0 0.0 0.00 0.00 0.00 95 1021.4
20200219102252 68 84 0.0 0.0 0.00 0.00 0.00 95 1021.3
20200219101257 68 84 0.0 0.0 0.00 0.00 0.00 95 1021.3
20200219100314 68 84 0.0 0.0 0.00 0.00 0.00 95 1021.2
20200219095315 69 86 0.0 0.0 0.00 0.00 0.00 95 1021.1
20200219094318 69 110 0.0 0.0 0.00 0.00 0.00 96 1021.1
20200219093330 69 110 0.0 0.0 0.00 0.00 0.00 96 1021.0
20200219092330 68 112 0.0 0.0 0.00 0.00 0.00 96 1020.9
20200219091349 68 115 0.0 0.0 0.00 0.00 0.00 96 1020.9
20200219090330 68 117 0.0 0.0 0.00 0.00 0.00 96 1020.8
20200219085326 68 130 0.0 0.0 0.00 0.00 0.00 96 1020.9
20200219084342 68 103 0.0 0.0 0.00 0.00 0.00 96 1020.8
20200219083336 68 112 0.0 0.0 0.00 0.00 0.00 95 1020.9
20200219082350 68 105 0.0 0.0 0.00 0.00 0.00 96 1020.9
20200219081330 68 123 0.0 0.0 0.00 0.00 0.00 96 1021.0
20200219080355 68 124 0.0 0.0 0.00 0.00 0.00 96 1021.0
20200219075407 68 127 0.0 0.0 0.00 0.00 0.00 96 1021.0
20200219074336 68 108 0.0 0.0 0.00 0.00 0.00 96 1021.0
20200219073333 68 115 0.0 0.0 0.00 0.00 0.00 96 1021.1
20200219072313 68 105 0.0 0.0 0.00 0.00 0.00 96 1021.1
20200219071328 68 105 0.0 0.0 0.00 0.00 0.00 96 1021.1
20200219070315 68 119 0.0 0.0 0.00 0.00 0.00 96 1021.2
20200219065247 68 96 0.0 0.0 0.00 0.00 0.00 96 1021.2
20200219064217 68 113 0.0 0.0 0.00 0.00 0.00 96 1021.3
20200219063206 69 115 0.0 0.0 0.00 0.00 0.00 96 1021.3
20200219062157 69 103 0.0 0.0 0.00 0.00 0.00 96 1021.2
20200219061134 69 114 0.0 0.0 0.00 0.00 0.00 96 1021.2
20200219060153 69 101 0.0 0.0 0.00 0.00 0.00 96 1021.2
20200219055136 69 110 0.0 0.0 0.00 0.00 0.00 95 1021.2
20200219054141 69 75 0.0 0.0 0.00 0.00 0.00 95 1021.1
20200219053150 69 70 0.0 0.0 0.00 0.00 0.00 95 1021.2
20200219052146 69 67 0.0 0.0 0.00 0.00 0.00 95 1021.2
20200219051125 69 61 0.0 0.0 0.00 0.00 0.00 95 1021.3
20200219050121 69 68 0.0 0.0 0.00 0.00 0.00 96 1021.4
20200219045109 69 50 0.0 0.0 0.00 0.00 0.00 95 1021.5
20200219044040 69 49 0.0 0.0 0.00 0.00 0.00 95 1021.5
20200219043041 69 44 0.0 0.0 0.00 0.00 0.00 95 1021.3
20200219042053 69 44 0.0 0.0 0.00 0.00 0.00 95 1021.3
20200219041113 69 33 0.0 0.0 0.00 0.00 0.00 95 1021.2
20200219040122 69 331 0.0 0.0 0.00 0.00 0.00 95 1021.2
20200219035049 69 330 0.0 0.0 0.00 0.00 0.00 95 1021.1
20200219034030 69 357 0.0 0.0 0.00 0.00 0.00 95 1021.1
20200219033011 70 20 0.0 0.0 0.00 0.00 0.00 95 1021.0
20200219032009 70 340 0.0 3.0 0.00 0.00 0.00 95 1021.1
20200219031019 70 309 1.0 3.0 0.00 0.00 0.00 95 1021.0
20200219030023 70 309 1.0 2.0 0.00 0.00 0.00 94 1020.9
20200219024951 70 328 1.0 3.0 0.00 0.00 0.00 94 1021.0
20200219023948 70 323 2.0 4.0 0.00 0.00 0.00 94 1021.1
20200219022934 70 318 1.0 4.0 0.00 0.00 0.00 95 1021.2
20200219021912 70 286 0.0 0.0 0.00 0.00 0.00 95 1021.1
20200219014622 70 212 0.0 0.0 0.00 0.00 0.00 94 1020.8
20200219013611 70 212 0.0 0.0 0.00 0.00 0.00 94 1020.7
20200219012627 70 212 0.0 0.0 0.00 0.00 0.00 93 1020.8
20200219011620 70 212 0.0 0.0 0.00 0.00 0.00 93 1020.6
20200219010552 70 212 0.0 0.0 0.00 0.00 0.00 93 1020.4
20200219005555 70 211 0.0 0.0 0.00 0.00 0.00 93 1020.3
20200219004521 71 221 0.0 0.0 0.00 0.00 0.00 92 1020.2
20200219003519 71 212 0.0 0.0 0.00 0.00 0.00 92 1020.2
20200219002519 71 212 0.0 0.0 0.00 0.00 0.00 91 1020.0
20200219001521 71 229 0.0 0.0 0.00 0.00 0.00 91 1019.9
20200219000516 72 229 0.0 0.0 0.00 0.00 0.00 90 1020.1
20200218235445 72 211 0.0 0.0 0.00 0.00 0.00 90 1020.0
20200218233246 73 231 0.0 0.0 0.00 0.00 0.00 87 1019.8
20200218232246 73 217 0.0 2.0 0.00 0.00 0.00 86 1019.8
20200218231256 73 232 0.0 6.0 0.00 0.00 0.00 85 1019.9
20200218225132 75 218 1.0 6.0 0.00 0.00 0.00 83 1020.0
20200218224142 76 218 0.0 6.0 0.00 0.00 0.00 81 1019.8
20200218223112 76 207 0.0 5.0 0.00 0.00 0.00 80 1019.8
20200218221030 77 182 0.0 7.0 0.00 0.00 0.00 79 1019.7
20200218220036 76 242 2.0 8.0 0.00 0.00 0.00 79 1019.4
20200218214034 76 225 2.0 9.0 0.00 0.00 0.00 82 1019.4